GEFSNGP_con_maxscp_342.txt.gz
SCP
0 0 0 0 0 0 0 0 0 1 1 2 2 2 3 4 5 6 7 9 10 11 9 8 9 13 16 15 13 12 11 10 9 8 7 7 7 9 11 14 14 12 9 7
0 0 0 0 0 0 0 0 0 1 1 2 3 3 4 5 6 7 7 8 8 9 8 7 8 12 15 17 16 16 14 13 11 9 8 8 8 9 11 13 14 12 9 8
1 1 1 1 1 0 0 0 0 1 1 2 3 3 4 5 5 6 7 7 7 6 6 6 7 10 15 18 19 18 15 13 12 10 9 9 9 10 11 12 13 11 9 8
1 1 1 1 1 1 1 1 1 1 1 2 3 4 5 6 6 6 6 6 6 5 5 5 6 9 14 18 20 19 15 13 12 12 11 10 11 12 12 12 11 10 9 9
1 1 1 1 2 1 1 2 2 3 2 2 3 5 6 7 7 6 6 6 5 4 5 7 8 10 14 17 19 18 14 13 15 15 13 12 13 14 14 13 10 9 9 9
1 1 1 2 2 2 2 3 4 4 4 3 4 6 7 7 7 6 6 5 5 5 6 8 10 13 16 17 16 13 12 14 17 18 16 15 14 14 14 11 9 7 8 8
1 1 1 2 2 3 3 3 4 4 4 5 6 6 8 8 7 6 6 6 5 6 8 10 13 17 18 15 11 9 9 12 17 19 17 16 15 13 11 9 7 6 7 8
2 2 2 2 3 4 4 4 3 3 4 6 7 8 9 9 7 6 7 7 8 9 11 12 14 15 14 10 7 6 7 11 16 17 14 13 12 10 8 6 5 5 6 8
2 2 2 2 3 4 4 3 3 3 4 6 7 8 9 8 7 7 7 8 9 11 12 13 12 10 8 6 5 5 7 11 14 12 10 9 8 7 6 5 4 5 7 8
2 2 2 2 3 3 3 3 3 3 4 6 8 9 9 8 7 7 7 8 8 10 10 9 8 7 5 5 5 6 7 9 10 9 8 7 6 4 4 4 4 5 7 9
2 2 3 3 2 2 2 2 3 3 5 7 11 12 9 7 6 6 6 7 7 7 6 6 5 4 4 4 5 5 6 7 9 9 8 6 4 3 3 3 4 5 7 8
2 3 4 4 3 2 3 4 5 6 7 10 13 12 9 7 6 6 6 6 6 5 5 4 4 4 5 5 4 4 5 6 9 9 7 5 4 3 2 2 2 3 4 5
2 3 4 4 4 4 5 7 9 9 11 13 14 12 9 8 7 7 7 7 6 6 5 5 5 6 6 6 6 5 5 6 8 8 6 5 4 3 2 2 1 1 1 1
2 3 3 3 4 5 7 8 9 10 12 14 13 10 8 7 7 7 8 8 7 6 6 6 6 7 8 8 7 6 5 6 7 7 5 4 4 4 3 3 2 1 0 0
3 3 4 3 3 4 5 6 7 9 11 12 10 7 5 5 6 7 8 8 7 7 7 7 7 8 9 9 7 6 5 4 5 5 4 4 5 5 5 4 3 2 1 1
4 4 4 4 3 3 3 4 5 6 7 7 6 5 4 5 6 8 8 8 8 8 8 8 9 9 8 7 6 5 4 3 2 2 2 3 5 5 5 4 3 2 1 1
3 4 4 4 4 3 3 4 4 5 5 6 5 5 5 6 7 7 7 7 8 8 8 8 8 9 7 6 5 4 3 3 3 2 3 4 5 5 6 5 4 3 2 1
3 3 4 4 4 3 3 3 4 4 5 5 5 5 5 6 7 7 6 7 7 9 9 8 7 7 6 5 4 4 3 5 5 4 3 4 4 4 6 6 4 3 2 1
3 3 3 3 3 3 3 3 3 3 3 3 4 4 5 6 6 6 6 6 7 8 8 7 5 5 4 3 3 4 5 5 5 3 3 3 3 4 6 6 5 3 2 1
3 3 3 3 3 2 2 3 3 3 3 3 3 3 4 5 4 4 5 5 5 6 5 4 3 3 3 2 2 3 3 3 2 2 1 2 2 4 5 5 5 3 2 1
2 2 3 3 3 2 2 3 4 4 3 3 3 3 4 4 3 3 3 4 3 3 3 2 2 2 2 2 1 2 2 1 1 1 1 1 2 4 5 4 4 3 2 1
2 2 3 3 3 2 2 2 3 3 3 3 3 3 3 3 3 3 3 2 2 2 2 2 2 1 1 1 2 2 2 2 1 1 1 1 2 3 4 4 3 3 2 1
2 3 3 3 2 2 2 2 2 2 3 2 2 3 3 4 3 3 2 2 1 1 1 2 1 1 1 1 1 2 2 2 1 1 1 1 2 3 3 3 3 2 1 1
3 3 3 3 2 2 2 2 2 2 2 2 2 3 3 3 2 2 2 1 1 1 1 1 1 0 0 1 1 1 1 1 1 1 1 1 1 2 2 2 2 1 1 1
3 3 3 2 2 2 2 2 2 2 2 2 2 2 2 2 1 1 1 1 1 0 1 1 0 0 0 1 1 0 0 0 0 0 0 1 1 1 2 2 1 1 1 1
3 3 2 2 2 2 2 2 2 2 2 2 2 1 1 1 1 1 1 1 1 1 1 1 0 0 0 1 1 0 0 0 0 0 0 0 1 1 1 1 1 1 1 1
2 2 2 1 1 2 2 2 2 2 2 2 2 1 1 1 1 1 1 1 1 1 1 1 0 0 0 0 1 0 0 0 0 0 0 0 1 1 1 1 1 1 1 1

GEFSNGP_con_maxscp_348.txt.gz
SCP
0 0 0 0 0 0 0 0 1 1 1 2 2 2 3 4 4 3 3 2 2 3 3 3 2 2 2 2 2 2 3 5 6 6 6 5 5 5 5 4 4 4 4 4
0 0 0 0 0 0 0 0 1 1 2 2 3 3 4 4 4 4 4 3 3 3 3 3 2 2 2 3 3 3 4 5 6 7 7 7 7 7 6 6 5 5 4 4
0 0 0 1 1 1 0 1 1 1 2 3 5 6 6 5 5 5 5 5 5 4 4 3 2 3 4 4 5 5 6 6 7 8 9 10 10 9 8 7 6 5 5 4
0 0 0 1 1 1 1 1 1 1 3 6 8 8 7 6 6 7 6 5 5 4 3 3 3 3 4 5 6 6 6 7 8 9 9 10 11 11 10 9 8 7 6 5
0 0 0 1 1 1 1 1 1 2 5 9 9 8 7 6 6 6 5 4 3 3 3 3 3 4 4 5 5 5 6 7 7 7 7 8 11 12 13 12 11 9 8 6
0 0 0 0 0 0 1 1 1 3 6 7 6 5 4 4 5 5 4 3 3 3 3 3 3 4 4 5 5 4 5 6 6 6 6 7 9 12 13 13 13 11 9 8
0 0 0 1 1 1 1 1 2 3 4 4 3 3 3 3 3 3 3 4 4 3 3 3 3 3 4 4 3 3 4 6 7 8 8 8 8 9 11 11 11 10 9 8
0 0 1 1 1 1 1 2 3 4 3 3 3 3 3 3 3 3 3 3 4 4 3 2 2 2 3 3 2 2 3 6 7 8 8 8 8 8 8 8 8 8 7 6
0 1 1 1 1 1 2 3 3 3 3 3 3 3 3 4 4 4 3 3 3 3 3 2 2 2 2 2 2 2 3 5 6 6 6 7 8 9 8 7 6 5 5 4
2 2 2 2 1 2 2 3 3 2 3 4 5 5 5 5 6 6 4 3 3 3 3 2 2 2 2 3 3 2 3 5 6 5 4 5 7 8 8 7 6 5 4 4
3 3 3 2 1 2 2 3 3 2 3 7 10 10 9 8 7 7 5 3 3 3 3 2 2 3 3 3 3 3 3 5 6 4 2 3 5 5 5 5 5 5 4 4
3 3 2 1 1 2 3 3 3 3 5 9 13 13 10 8 7 6 4 3 3 3 3 3 3 4 4 4 3 3 3 4 4 2 1 2 2 2 2 2 3 3 3 3
1 1 1 0 1 2 3 3 3 3 4 8 10 9 7 6 6 5 4 4 4 3 3 3 4 5 5 4 4 3 3 2 2 2 1 1 1 1 0 1 1 1 1 1
0 0 0 0 1 2 2 2 2 3 4 6 6 6 5 4 4 4 5 6 5 4 4 4 5 5 5 4 4 4 3 2 2 2 1 1 1 1 1 1 1 1 1 1
1 0 1 1 1 2 2 3 3 4 4 5 5 4 3 3 3 4 6 6 5 5 5 5 5 5 4 4 4 5 3 2 2 1 1 0 0 1 1 1 1 1 1 1
1 1 1 1 1 2 2 4 6 7 6 4 4 3 2 2 2 4 5 5 4 5 5 6 5 4 3 3 4 4 4 2 1 1 1 1 1 1 1 1 1 1 1 1
1 1 0 1 2 2 3 6 10 11 8 5 3 2 2 1 2 3 3 4 4 4 5 5 4 3 2 2 4 4 4 3 2 2 1 1 1 1 1 1 1 1 1 1
1 0 0 1 1 2 3 8 12 11 7 4 3 2 2 1 2 2 3 4 4 5 5 4 3 2 2 3 4 5 5 5 3 3 2 2 1 1 1 1 2 1 1 1
1 1 1 1 1 1 3 7 9 8 5 3 2 2 2 1 2 2 3 4 5 4 4 3 3 2 3 4 5 6 6 6 5 3 2 1 1 1 1 1 1 1 0 0
1 2 2 1 1 1 2 3 4 4 3 2 1 1 1 1 1 2 3 3 3 3 2 2 2 2 2 2 4 5 6 5 4 2 1 1 0 0 0 0 0 0 0 0
2 2 2 2 2 1 1 2 2 2 2 1 1 1 1 1 1 2 2 2 1 1 1 1 1 1 1 1 2 3 3 3 2 1 1 1 0 0 0 0 0 0 0 0
1 2 2 2 2 2 2 1 1 2 2 2 1 1 1 1 1 1 1 1 1 0 1 1 1 1 1 1 1 1 2 2 1 1 1 1 1 0 0 0 0 0 0 0
1 1 1 2 2 2 1 1 2 2 2 1 1 1 1 1 1 1 1 1 1 0 0 1 1 1 0 1 1 1 1 1 1 1 1 1 0 0 0 0 0 0 0 0
0 0 0 1 1 1 1 1 1 2 1 1 1 1 1 1 1 1 1 1 1 0 0 0 0 0 0 1 1 1 1 1 1 1 1 0 0 0 0 0 0 0 0 0
0 0 0 0 0 0 1 1 1 1 1 1 1 1 1 1 1 1 1 0 0 0 0 0 0 0 0 0 1 1 1 1 1 1 1 0 0 0 0 0 0 0 0 0
0 0 0 0 0 0 0 0 1 1 1 1 1 1 1 1 1 1 0 0 0 0 0 0 0 0 0 0 0 0 1 1 1 1 0 0 0 0 0 0 0 0 0 0
0 0 0 0 0 0 0 0 0 0 0 1 1 1 1 1 1 0 0 0 0 0 0 0 0 0 0 0 0 0 0 1 1 1 1 0 0 0 0 0 0 0 0 0

GEFSNGP_con_maxscp_354.txt.gz
SCP
0 0 0 0 0 0 0 0 0 1 2 3 3 2 1 1 1 1 1 1 1 2 2 2 2 2 1 1 1 2 3 3 3 3 3 3 4 4 5 5 5 3 2 2
0 0 0 1 1 0 0 0 0 1 2 3 3 2 1 1 1 1 1 1 2 2 2 2 2 2 2 1 1 2 2 3 3 3 3 4 4 4 5 5 5 5 4 3
0 0 0 1 1 1 0 0 1 1 2 2 2 2 1 1 2 2 2 2 2 3 3 3 2 2 2 2 1 2 2 2 2 2 2 4 4 5 5 5 6 6 5 4
0 0 0 1 1 1 0 0 1 1 2 3 3 3 3 2 2 3 3 3 3 3 3 3 2 2 2 2 1 2 2 2 2 2 2 3 4 5 5 6 6 7 7 7
0 0 0 0 0 0 1 1 1 2 3 4 5 5 5 4 3 3 4 4 3 3 2 2 1 2 2 2 2 2 2 2 1 2 2 3 4 4 5 6 6 7 9 9
0 0 0 0 0 1 1 1 1 3 6 7 6 6 6 5 3 3 5 5 3 2 1 1 1 2 3 3 2 2 1 1 1 2 2 2 3 4 5 6 6 7 9 10
0 0 0 0 0 1 1 1 3 6 9 9 7 7 6 4 3 3 4 4 2 1 1 2 2 2 3 3 2 1 1 1 1 1 1 1 2 4 5 6 6 6 8 9
0 0 0 0 0 1 1 2 5 8 9 8 7 5 4 3 2 2 3 2 2 2 2 2 2 3 3 2 1 1 1 1 1 2 1 1 2 4 6 6 6 5 6 7
0 0 0 0 0 1 1 3 6 6 6 5 4 4 3 2 1 1 2 1 1 2 2 2 2 3 2 1 1 1 1 1 2 2 1 1 2 4 6 7 5 5 5 6
0 0 0 0 0 1 2 3 4 4 3 3 3 2 2 1 1 1 1 1 1 1 2 2 2 2 2 2 2 2 1 2 2 2 1 1 2 5 7 7 6 5 5 5
0 0 0 0 1 1 2 3 3 3 2 2 2 1 1 1 1 1 1 1 1 2 2 2 3 3 3 3 3 3 2 2 1 1 1 1 2 4 5 6 5 5 5 5
0 0 0 0 1 1 2 3 2 2 2 1 1 1 1 1 1 2 1 1 1 2 2 3 3 4 4 5 4 4 3 2 1 1 1 1 1 1 2 2 2 3 3 4
0 0 0 0 1 2 3 3 2 2 2 1 1 1 1 2 3 3 2 1 1 1 2 3 4 5 6 6 5 4 3 2 1 1 1 1 1 0 0 0 1 1 1 1
0 0 0 0 1 2 3 3 2 2 2 2 1 1 2 3 3 3 2 1 1 1 2 3 4 6 7 7 6 4 3 1 1 1 1 1 1 1 0 0 0 0 0 0
0 0 1 1 2 2 3 3 2 2 2 2 2 2 3 3 3 2 1 1 1 1 2 3 4 6 7 7 6 4 2 1 1 1 1 0 0 0 0 0 0 0 0 0
1 1 1 1 2 2 2 2 1 1 2 2 2 2 2 2 2 1 1 1 1 1 2 3 4 5 6 6 5 4 2 1 1 0 0 0 0 0 0 0 0 0 0 0
1 1 1 2 2 2 1 1 1 1 1 2 2 2 2 1 1 1 1 1 1 1 2 3 4 5 5 6 5 4 2 1 0 0 0 0 0 0 0 0 0 0 0 0
1 1 1 1 2 1 1 1 1 1 1 1 1 1 1 1 1 1 1 1 1 2 2 3 4 4 4 4 4 3 2 1 0 0 0 0 0 0 0 0 0 0 0 0
1 1 1 1 1 1 1 1 0 0 1 1 1 1 1 1 1 1 1 1 1 2 2 3 3 3 3 2 2 1 1 1 1 1 1 1 1 0 0 0 0 1 1 1
0 0 0 0 0 0 0 0 0 0 0 1 1 1 1 1 1 1 1 1 1 1 1 1 2 2 1 1 0 0 0 1 2 2 2 2 2 1 1 1 1 2 2 2
0 0 0 0 0 0 0 0 0 0 1 1 1 1 1 0 1 1 1 1 1 1 1 1 1 1 1 0 0 0 0 0 1 3 4 4 4 3 3 3 3 3 3 3
0 0 0 0 0 0 0 0 0 0 0 0 1 1 1 0 0 0 1 1 1 1 1 0 0 0 0 0 0 0 0 0 1 2 3 5 5 5 4 4 4 4 3 3
0 0 0 0 0 0 0 0 0 0 0 0 0 1 1 1 0 0 1 1 1 1 1 1 0 0 0 0 1 1 0 0 0 1 2 3 4 4 4 3 3 3 2 2
0 0 0 0 0 0 0 0 0 0 0 0 0 1 1 0 0 0 0 0 0 0 0 0 0 0 0 0 1 1 1 1 1 1 1 1 2 2 2 2 2 1 1 1
0 0 0 0 0 0 0 0 0 0 0 0 0 0 0 0 0 0 0 0 0 0 0 0 0 0 0 0 0 1 1 1 1 1 1 1 1 1 1 1 1 1 1 1
0 0 0 0 0 0 0 0 0 0 0 0 0 0 0 0 1 1 0 0 0 0 0 0 0 0 0 0 0 0 1 1 1 1 1 1 1 1 1 1 1 1 1 1
0 0 0 0 0 0 0 0 0 0 0 0 1 0 0 0 1 1 0 0 0 0 0 0 0 0 0 0 0 0 0 0 1 1 1 1 1 1 1 1 1 1 1 1

GEFSNGP_con_maxscp_360.txt.gz
SCP
0 0 0 0 0 0 1 1 1 1 2 2 2 2 2 3 2 3 4 4 4 4 4 3 2 3 5 6 7 6 5 5 5 6 5 5 5 6 6 6 5 5 5 5
0 0 0 0 1 1 1 1 1 1 2 2 2 2 2 2 2 2 3 4 4 4 4 3 3 4 5 7 7 7 6 6 6 6 6 5 5 6 7 7 7 6 6 6
0 0 0 1 1 1 1 1 1 2 2 2 2 2 2 2 2 2 3 3 4 5 5 4 4 4 5 7 7 7 7 7 7 7 5 4 5 6 7 9 9 8 7 7
0 0 1 1 1 1 1 1 1 1 2 2 2 2 2 2 2 2 3 3 4 5 5 5 5 5 6 7 7 8 9 9 9 7 5 4 4 5 6 8 8 8 8 8
0 0 1 1 1 1 1 1 1 2 2 2 2 2 2 2 2 2 3 3 4 5 5 4 4 4 5 6 8 9 11 11 9 7 6 5 4 5 6 7 7 7 8 9
0 0 0 1 1 0 1 1 1 2 2 2 2 2 3 3 3 3 4 3 4 5 5 3 3 3 4 6 9 11 11 10 8 7 6 6 6 7 9 9 9 8 9 9
0 0 0 1 0 0 1 1 1 1 2 2 2 3 4 5 6 5 4 3 3 4 4 3 3 3 4 6 9 10 9 7 6 5 5 5 6 8 10 11 10 9 8 8
0 0 0 1 1 1 1 1 1 1 2 2 4 5 7 8 8 6 5 3 3 3 3 3 3 4 4 6 8 8 6 5 4 4 3 3 4 6 8 10 9 7 6 6
0 1 1 1 1 1 1 1 1 2 2 4 5 8 10 10 8 6 5 4 3 3 2 2 3 4 5 6 7 7 6 5 4 4 4 4 4 4 5 7 6 5 4 3
1 1 1 1 1 2 2 2 2 2 3 5 6 8 9 9 7 5 4 4 3 3 2 2 3 4 5 6 7 7 7 6 6 6 6 5 4 3 3 4 5 4 3 2
1 1 1 1 1 2 2 2 2 3 4 5 6 6 7 6 5 4 4 3 3 3 2 2 3 3 5 6 8 9 8 8 7 8 8 6 4 3 2 2 3 3 2 2
1 1 1 2 2 3 3 3 3 3 4 5 5 5 5 5 5 5 4 4 4 3 3 3 3 3 4 5 7 9 9 9 9 10 9 6 4 2 1 1 1 1 1 1
1 1 2 2 3 3 3 3 3 4 4 5 4 4 4 5 5 5 5 5 4 3 3 3 3 3 3 4 5 7 8 9 10 11 9 7 5 3 1 0 0 0 0 0
1 1 2 2 2 2 2 3 4 4 4 4 4 4 4 4 5 5 4 3 3 3 3 3 2 2 2 2 4 5 7 9 11 11 9 7 5 4 2 1 0 0 0 0
1 1 1 2 2 2 3 4 4 3 3 3 3 3 4 4 4 3 2 2 2 2 2 2 2 2 2 2 3 4 6 9 11 10 8 6 6 5 3 1 1 1 1 0
1 1 1 2 2 2 3 4 3 3 3 3 3 4 4 4 4 2 2 2 2 2 2 2 2 2 2 3 3 4 5 7 7 6 5 5 5 4 2 1 1 1 1 1
2 2 2 2 3 3 4 3 3 3 3 3 3 4 4 4 3 2 1 2 2 2 2 2 2 2 2 2 3 3 3 3 3 2 2 2 3 2 1 1 1 1 1 1
2 3 3 3 4 4 4 3 3 2 2 3 3 3 4 3 2 1 1 1 2 2 2 2 2 1 2 2 2 2 2 1 1 1 1 1 1 1 1 1 1 1 1 1
3 3 3 4 5 5 5 4 3 2 2 3 3 3 3 3 2 2 1 1 1 1 1 1 1 1 2 2 2 1 1 1 0 0 0 0 1 1 1 1 1 1 1 1
2 2 3 5 6 6 6 5 4 3 3 3 3 3 3 3 2 2 2 1 1 1 1 1 1 1 1 1 1 1 1 1 1 0 0 0 0 1 1 1 1 1 1 2
1 1 2 4 6 7 6 5 4 4 4 4 3 3 2 2 2 2 1 1 1 1 1 1 1 1 1 1 1 1 1 1 1 1 1 1 1 1 1 1 1 1 1 2
0 0 1 2 4 6 6 5 4 4 3 3 2 2 1 1 1 1 1 1 1 1 1 1 1 1 1 1 1 1 1 1 1 1 1 1 1 1 1 1 1 1 1 1
1 1 1 2 3 4 4 4 3 3 2 2 1 1 1 1 1 1 1 1 0 0 0 1 1 1 1 1 1 1 1 1 1 1 1 1 1 1 1 1 1 1 1 1
2 2 2 2 3 3 3 3 2 2 1 1 1 0 1 1 1 1 1 0 0 0 0 0 0 0 0 1 1 1 1 2 2 1 1 1 1 1 1 1 1 1 1 1
2 2 2 2 2 2 2 2 1 1 1 1 0 0 0 1 1 1 1 0 0 0 0 0 0 0 0 0 1 1 1 1 2 2 2 1 1 1 1 1 1 1 1 1
2 2 2 1 1 1 1 1 1 1 0 0 0 0 0 1 1 1 1 0 0 0 0 0 0 0 0 0 0 0 0 1 1 1 1 1 1 1 1 1 1 1 1 1
1 1 1 1 1 1 1 0 0 0 0 0 0 0 1 1 1 1 0 0 0 0 0 0 0 0 0 0 0 0 0 0 0 0 0 1 1 1 1 1 1 1 1 1